Location: East Guldeford
(50.9500°N, 0.7500°E)
Time: 09:40:00
(UTC+00:00)

Cosmos 44 - Pass Details

Date: 12 May 2021
Orbit: 571 x 791 km, 65.1° (Epoch: 16 June)

Event Time Altitude Azimuth Distance (km) Brightness Sun altitude
Rises 22:17:59 0° 317° (NW) 3,298 8.2 -17.6°
Reaches altitude 10° 22:20:28 10° 314° (NW) 2,360 7.1 -17.7°
Maximum altitude 22:25:49 59° 236° (SW) 896 3.7 -18.1°
Enters shadow 22:28:03 33° 172° (S) 1,273 4.1 -18.2°
